Flag for Germany Weather past 2 weeks in Pulheim, North Rhine-Westphalia, Germany

Now
48 °F

Cool.


Feels Like: 48 °F
Forecast: 53 / 65 °F
Wind: 2 mph from West

Location: Noervenich

Current Time: May 27, 2015 at 6:19:03 AM

Latest Report: May 27, 2015 at 5:20 AM


Visibility: 4 mi

Pressure: 30.24 "Hg

Humidity: 76%

Dew point: 41 °F

Location of PulheimLocation

Historic Weather in Pulheim — Graph

°F

Pulheim temperature yesterday

Maximum temperature yesterday: 59 °F (at 5:20 PM)
Minimum temperature yesterday: 48 °F (at 5:20 AM)
Average temperature yesterday: 53 °F

Past Weeks' High & Low Weather Summary

 TemperatureHumidityPressure
High72 °F (May 12, 3:20 PM)100% (May 15, 1:20 AM)30.33 "Hg (May 15, 1:20 AM)
Low39 °F (May 21, 5:20 AM)35% (May 18, 4:20 PM)29.65 "Hg (May 18, 7:20 PM)
Average55 °F67%30.06 "Hg
* Reported May 12 4:20 AM — May 27 4:20 AM, Pulheim, Weather by CustomWeather, © 2015

Note: Actual official high and low records may vary slightly from our data, if they occured in-between our weather recording intervals... More about our weather records

Advertising

Pulheim weather history for previous 24 hours

 ConditionsComfort  
Time TempWeatherWind HumidityBarometerVisibility
4:20 AM
Wed, May 27
48 °FCool.1 mph76%30.27 "Hg4 mi
3:20 AM48 °FCool.2 mph76%30.27 "Hg4 mi
2:20 AM50 °FCool.2 mph71%30.24 "Hg4 mi
1:20 AM50 °FCool.3 mph71%30.24 "Hg4 mi
12:20 AM46 °FCool.3 mph76%30.24 "Hg4 mi
11:20 PM
Tue, May 26
50 °FCool.3 mph62%30.24 "Hg4 mi
10:20 PM50 °FCool.5 mph62%30.21 "Hg5 mi
9:20 PM54 °FCool.7 mph54%30.21 "Hg6 mi
8:20 PM55 °FRefreshingly cool.7 mph51%30.18 "Hg6 mi
7:20 PM57 °FPartly sunny.9 mph48%30.18 "HgN/A
6:20 PM57 °FBroken clouds.7 mph55%30.15 "HgN/A
5:20 PM59 °FBroken clouds.6 mph51%30.15 "HgN/A
4:20 PM57 °FBroken clouds.2 mph55%30.15 "HgN/A
3:20 PM55 °FBroken clouds.6 mph63%30.15 "HgN/A
2:20 PM57 °FBroken clouds.6 mph51%30.15 "HgN/A
1:20 PM55 °FBroken clouds.6 mph55%30.12 "HgN/A
12:20 PM55 °FBroken clouds.7 mph51%30.12 "HgN/A
12:00 PM55 °FBroken clouds.6 mph51%30.12 "HgN/A
11:20 AM54 °FBroken clouds.7 mph54%30.12 "HgN/A
10:20 AM52 °FPartly sunny.3 mph62%30.12 "HgN/A
9:20 AM52 °FBroken clouds.5 mph72%30.12 "HgN/A
8:20 AM50 °FPartly sunny.5 mph76%30.09 "HgN/A
7:20 AM48 °FPartly sunny.6 mph82%30.09 "HgN/A
6:20 AM48 °FPartly cloudy.3 mph82%30.07 "HgN/A
Weather by CustomWeather, © 2015

See weather overviewHow to use our weather pages